QPF
0.00 0.00 0.00 0.00 0.00 0.00 0.00 0.00 0.00 0.00 0.00 0.00 0.00 0.00 0.00 0.00 0.00 0.00 0.00 0.00 0.00 0.00 0.00 0.00 0.00 0.00 0.00 0.00 0.00 0.00 0.00 0.00 0.00 0.00 0.00 0.00 0.00 0.00 0.00 0.00 0.00 0.00 0.00 0.00
0.00 0.00 0.00 0.00 0.00 0.00 0.00 0.00 0.00 0.00 0.00 0.00 0.00 0.00 0.00 0.00 0.00 0.00 0.00 0.00 0.00 0.00 0.00 0.00 0.00 0.00 0.00 0.00 0.00 0.00 0.00 0.00 0.00 0.00 0.00 0.00 0.00 0.00 0.00 0.00 0.00 0.00 0.00 0.00
0.00 0.00 0.00 0.00 0.00 0.00 0.00 0.00 0.00 0.00 0.00 0.00 0.00 0.00 0.00 0.00 0.00 0.00 0.00 0.00 0.00 0.00 0.00 0.00 0.00 0.00 0.00 0.00 0.00 0.00 0.00 0.00 0.00 0.00 0.00 0.00 0.00 0.00 0.00 0.00 0.00 0.00 0.00 0.00
0.00 0.00 0.00 0.00 0.00 0.00 0.00 0.00 0.00 0.00 0.00 0.00 0.00 0.00 0.00 0.00 0.00 0.00 0.00 0.00 0.00 0.00 0.00 0.00 0.00 0.00 0.00 0.00 0.00 0.00 0.00 0.00 0.00 0.00 0.00 0.00 0.00 0.00 0.00 0.00 0.00 0.00 0.00 0.00
0.00 0.00 0.00 0.00 0.00 0.00 0.00 0.00 0.00 0.00 0.00 0.00 0.00 0.00 0.00 0.00 0.00 0.00 0.00 0.00 0.00 0.00 0.00 0.00 0.00 0.00 0.00 0.00 0.00 0.00 0.00 0.00 0.00 0.00 0.00 0.00 0.00 0.00 0.00 0.00 0.00 0.00 0.00 0.00
0.00 0.00 0.00 0.00 0.00 0.00 0.00 0.00 0.00 0.00 0.00 0.00 0.00 0.00 0.00 0.00 0.00 0.00 0.00 0.00 0.00 0.00 0.00 0.00 0.00 0.00 0.00 0.00 0.00 0.00 0.00 0.00 0.00 0.00 0.00 0.00 0.00 0.00 0.00 0.00 0.00 0.00 0.00 0.00
0.00 0.00 0.00 0.00 0.00 0.00 0.00 0.00 0.00 0.00 0.00 0.00 0.00 0.00 0.00 0.00 0.00 0.00 0.00 0.00 0.00 0.00 0.00 0.00 0.00 0.00 0.00 0.00 0.00 0.00 0.00 0.00 0.00 0.00 0.00 0.00 0.00 0.00 0.00 0.00 0.00 0.00 0.00 0.00
0.00 0.00 0.00 0.00 0.00 0.00 0.00 0.00 0.00 0.00 0.00 0.00 0.00 0.00 0.00 0.00 0.00 0.00 0.00 0.00 0.00 0.00 0.00 0.00 0.00 0.00 0.00 0.00 0.00 0.00 0.00 0.00 0.00 0.00 0.00 0.00 0.00 0.00 0.00 0.00 0.00 0.01 0.01 0.01
0.00 0.00 0.00 0.00 0.00 0.00 0.00 0.00 0.00 0.00 0.00 0.00 0.00 0.00 0.00 0.00 0.00 0.00 0.00 0.00 0.00 0.00 0.00 0.00 0.00 0.00 0.00 0.00 0.00 0.00 0.00 0.00 0.00 0.00 0.00 0.00 0.00 0.00 0.00 0.00 0.00 0.01 0.01 0.01
0.00 0.00 0.00 0.00 0.00 0.00 0.00 0.00 0.00 0.00 0.00 0.00 0.00 0.00 0.00 0.00 0.00 0.00 0.00 0.00 0.00 0.00 0.00 0.00 0.00 0.00 0.00 0.00 0.00 0.00 0.00 0.00 0.00 0.00 0.00 0.00 0.00 0.00 0.00 0.01 0.01 0.01 0.01 0.01
0.00 0.00 0.00 0.00 0.00 0.00 0.00 0.00 0.00 0.00 0.00 0.00 0.00 0.00 0.00 0.00 0.00 0.00 0.00 0.00 0.00 0.00 0.00 0.00 0.00 0.00 0.00 0.00 0.00 0.00 0.00 0.00 0.00 0.00 0.00 0.00 0.00 0.00 0.00 0.00 0.01 0.01 0.01 0.01
0.00 0.00 0.00 0.00 0.00 0.00 0.00 0.00 0.00 0.00 0.00 0.00 0.00 0.00 0.00 0.00 0.00 0.00 0.00 0.00 0.00 0.00 0.00 0.00 0.00 0.00 0.00 0.00 0.00 0.00 0.00 0.00 0.00 0.00 0.00 0.00 0.00 0.00 0.00 0.00 0.00 0.00 0.00 0.01
0.00 0.00 0.00 0.00 0.00 0.00 0.00 0.00 0.00 0.00 0.00 0.00 0.01 0.00 0.00 0.00 0.00 0.00 0.00 0.00 0.00 0.00 0.00 0.00 0.00 0.00 0.00 0.00 0.00 0.00 0.00 0.00 0.00 0.00 0.00 0.00 0.00 0.00 0.00 0.00 0.00 0.00 0.00 0.00
0.00 0.00 0.00 0.00 0.00 0.00 0.00 0.00 0.00 0.00 0.00 0.00 0.00 0.00 0.00 0.00 0.00 0.00 0.00 0.00 0.00 0.00 0.00 0.00 0.00 0.00 0.00 0.00 0.00 0.00 0.00 0.00 0.00 0.00 0.00 0.00 0.00 0.00 0.00 0.00 0.00 0.00 0.00 0.00
0.00 0.00 0.00 0.00 0.00 0.00 0.00 0.00 0.00 0.00 0.00 0.00 0.00 0.00 0.00 0.00 0.00 0.00 0.00 0.00 0.00 0.00 0.00 0.00 0.00 0.00 0.00 0.00 0.00 0.00 0.00 0.00 0.00 0.00 0.00 0.00 0.00 0.00 0.00 0.00 0.00 0.00 0.00 0.00
0.00 0.00 0.00 0.00 0.00 0.00 0.00 0.00 0.00 0.00 0.00 0.00 0.00 0.00 0.00 0.00 0.00 0.00 0.00 0.00 0.00 0.00 0.00 0.00 0.00 0.00 0.00 0.00 0.00 0.00 0.00 0.00 0.00 0.00 0.00 0.00 0.00 0.00 0.00 0.00 0.00 0.00 0.00 0.00
0.00 0.00 0.00 0.00 0.00 0.00 0.00 0.00 0.00 0.00 0.00 0.00 0.00 0.00 0.00 0.00 0.00 0.00 0.00 0.00 0.00 0.00 0.00 0.00 0.00 0.00 0.00 0.00 0.00 0.00 0.00 0.00 0.00 0.00 0.00 0.00 0.00 0.00 0.00 0.00 0.00 0.00 0.00 0.00
0.00 0.00 0.01 0.02 0.01 0.01 0.00 0.00 0.00 0.00 0.00 0.00 0.00 0.00 0.00 0.00 0.00 0.00 0.00 0.00 0.00 0.00 0.00 0.00 0.00 0.00 0.00 0.00 0.00 0.00 0.00 0.00 0.00 0.00 0.00 0.00 0.00 0.00 0.00 0.00 0.00 0.00 0.00 0.00
0.02 0.01 0.03 0.02 0.02 0.00 0.00 0.00 0.00 0.00 0.00 0.00 0.00 0.00 0.00 0.00 0.00 0.00 0.00 0.00 0.00 0.00 0.00 0.00 0.00 0.00 0.00 0.00 0.00 0.00 0.00 0.00 0.00 0.00 0.00 0.00 0.00 0.00 0.00 0.00 0.00 0.00 0.00 0.00
0.01 0.02 0.04 0.02 0.01 0.00 0.00 0.00 0.00 0.00 0.00 0.00 0.00 0.00 0.00 0.00 0.00 0.00 0.00 0.00 0.00 0.00 0.00 0.00 0.00 0.00 0.00 0.00 0.00 0.00 0.00 0.00 0.00 0.00 0.00 0.00 0.00 0.00 0.00 0.00 0.00 0.00 0.00 0.00
0.00 0.00 0.01 0.01 0.01 0.00 0.00 0.00 0.00 0.00 0.00 0.00 0.00 0.00 0.00 0.00 0.00 0.00 0.00 0.00 0.00 0.00 0.00 0.00 0.00 0.00 0.00 0.00 0.00 0.00 0.00 0.00 0.00 0.00 0.00 0.00 0.00 0.00 0.00 0.00 0.00 0.00 0.00 0.00
0.00 0.00 0.00 0.00 0.01 0.00 0.00 0.00 0.00 0.00 0.00 0.00 0.00 0.00 0.00 0.00 0.00 0.00 0.00 0.00 0.00 0.00 0.00 0.00 0.00 0.00 0.00 0.00 0.00 0.00 0.00 0.00 0.00 0.00 0.00 0.00 0.00 0.00 0.00 0.00 0.00 0.00 0.00 0.00
0.00 0.00 0.01 0.00 0.00 0.00 0.00 0.00 0.00 0.00 0.00 0.00 0.00 0.00 0.00 0.00 0.00 0.00 0.00 0.00 0.00 0.00 0.00 0.00 0.00 0.00 0.00 0.00 0.00 0.00 0.00 0.00 0.00 0.00 0.00 0.00 0.00 0.00 0.00 0.00 0.00 0.00 0.00 0.00
0.00 0.00 0.00 0.00 0.00 0.00 0.00 0.00 0.00 0.00 0.00 0.00 0.00 0.00 0.00 0.00 0.00 0.00 0.00 0.00 0.00 0.00 0.00 0.00 0.00 0.00 0.00 0.00 0.00 0.00 0.00 0.00 0.00 0.00 0.00 0.00 0.00 0.00 0.00 0.00 0.00 0.00 0.00 0.00
0.00 0.00 0.00 0.00 0.00 0.00 0.00 0.00 0.00 0.00 0.00 0.00 0.00 0.00 0.00 0.00 0.00 0.00 0.00 0.00 0.00 0.00 0.00 0.00 0.00 0.00 0.00 0.00 0.00 0.00 0.00 0.00 0.00 0.00 0.00 0.00 0.00 0.00 0.00 0.00 0.00 0.00 0.00 0.00
0.00 0.00 0.00 0.00 0.00 0.00 0.00 0.00 0.00 0.00 0.00 0.00 0.00 0.00 0.00 0.00 0.00 0.00 0.00 0.00 0.00 0.00 0.00 0.00 0.00 0.00 0.00 0.00 0.00 0.00 0.00 0.00 0.00 0.00 0.00 0.00 0.00 0.00 0.00 0.00 0.00 0.00 0.00 0.00
MSLP
1010.27 1009.74 1008.51 1007.53 1007.93 1008.41 1008.24 1007.59 1006.94 1006.68 1007.33 1008.82 1008.38 1008.04 1008.10 1009.61 1010.68 1011.53 1012.70 1013.93 1014.97 1016.23 1017.66 1018.57 1019.29 1019.58 1019.73 1019.91 1020.07 1020.15 1020.11 1020.04 1019.78 1019.14 1018.85 1018.24 1017.67 1017.25 1016.84 1016.40 1016.19 1016.07 1015.91 1015.84
1009.76 1009.00 1008.05 1008.61 1009.07 1009.17 1008.77 1008.16 1007.54 1007.32 1007.70 1008.76 1008.02 1007.45 1007.44 1008.35 1009.74 1010.84 1012.09 1013.33 1014.49 1015.94 1017.08 1018.36 1018.96 1019.47 1019.94 1020.22 1020.47 1020.61 1020.53 1020.43 1020.22 1020.03 1019.79 1019.27 1018.70 1018.01 1017.08 1016.53 1016.20 1016.24 1016.03 1015.98
1008.91 1008.04 1009.04 1009.37 1009.19 1009.12 1008.61 1008.27 1007.82 1007.66 1007.86 1008.14 1007.62 1007.05 1006.40 1006.98 1009.39 1010.68 1011.89 1012.94 1014.30 1015.59 1016.85 1018.11 1019.00 1019.55 1020.01 1020.45 1020.75 1020.90 1020.83 1020.66 1020.62 1020.67 1020.05 1019.61 1019.26 1018.16 1017.55 1017.11 1017.09 1016.68 1016.66 1016.58
1008.45 1008.45 1008.55 1009.21 1009.12 1008.74 1008.20 1008.00 1008.67 1008.65 1008.47 1007.29 1007.41 1006.25 1006.07 1007.03 1009.31 1010.76 1011.90 1013.15 1014.18 1015.80 1017.37 1018.25 1019.07 1019.61 1020.11 1020.64 1020.90 1020.99 1021.01 1020.82 1020.83 1020.89 1020.55 1020.29 1019.71 1019.16 1018.82 1018.36 1017.92 1017.67 1017.43 1017.01
1007.91 1008.78 1009.16 1008.73 1008.40 1008.72 1008.72 1009.30 1009.34 1009.06 1008.57 1007.94 1007.14 1006.46 1005.44 1006.88 1008.07 1009.61 1011.25 1012.80 1013.99 1015.61 1017.16 1018.24 1019.18 1019.79 1020.09 1020.52 1020.86 1021.04 1021.10 1020.96 1021.08 1021.23 1021.04 1020.77 1020.42 1020.14 1019.71 1019.37 1018.89 1018.51 1017.80 1017.45
1008.69 1008.76 1009.13 1008.85 1008.88 1009.21 1009.18 1009.59 1009.49 1009.32 1008.88 1007.69 1006.84 1006.29 1005.62 1005.89 1007.46 1008.96 1010.50 1012.24 1014.11 1015.88 1017.24 1018.39 1019.33 1019.87 1020.09 1020.51 1020.91 1021.06 1021.08 1020.99 1021.24 1021.41 1021.31 1021.22 1021.05 1020.84 1020.40 1019.97 1019.36 1018.84 1018.23 1017.52
1008.58 1008.65 1009.15 1009.46 1009.39 1009.60 1009.57 1009.13 1008.69 1008.34 1007.86 1006.80 1006.46 1006.58 1006.07 1006.90 1008.31 1009.67 1010.97 1012.46 1014.40 1016.02 1017.26 1018.27 1018.99 1019.56 1020.23 1020.71 1021.03 1021.13 1021.15 1021.14 1021.48 1021.71 1021.59 1021.55 1021.51 1021.35 1021.06 1020.51 1019.93 1019.31 1018.58 1017.84
1006.97 1007.65 1008.13 1008.84 1008.81 1008.72 1009.07 1008.93 1008.40 1007.54 1007.13 1006.39 1007.22 1006.29 1005.92 1008.01 1009.17 1010.55 1011.67 1012.62 1014.29 1015.94 1017.28 1018.24 1019.28 1019.97 1020.43 1020.96 1021.30 1021.55 1021.58 1021.52 1021.88 1022.11 1021.99 1021.97 1022.06 1021.97 1021.63 1021.12 1020.51 1019.70 1019.00 1018.30
1006.26 1007.01 1007.60 1008.70 1009.03 1008.89 1008.94 1009.20 1009.28 1009.07 1008.80 1008.21 1007.47 1006.98 1007.19 1009.17 1010.13 1011.09 1012.07 1013.16 1014.19 1015.50 1016.83 1018.12 1019.45 1020.34 1020.81 1021.35 1021.84 1022.13 1022.24 1022.22 1022.44 1022.45 1022.36 1022.45 1022.56 1022.55 1022.13 1021.59 1021.00 1020.22 1019.41 1018.55
1007.07 1007.71 1008.65 1009.63 1009.88 1009.53 1009.39 1009.23 1009.78 1009.86 1009.17 1008.35 1007.37 1007.22 1007.92 1009.56 1009.95 1010.98 1011.74 1012.66 1014.05 1015.41 1017.11 1018.55 1019.93 1020.99 1021.52 1022.04 1022.41 1022.85 1023.21 1023.20 1023.03 1022.75 1022.92 1023.07 1023.11 1023.06 1022.69 1022.13 1021.48 1020.73 1019.92 1019.06
1007.92 1008.15 1009.64 1010.36 1009.72 1008.96 1009.98 1009.58 1009.71 1009.55 1009.38 1008.89 1008.37 1008.15 1009.02 1010.04 1010.42 1011.05 1011.43 1011.94 1013.16 1015.03 1017.60 1019.50 1020.89 1021.76 1022.65 1023.23 1023.40 1023.91 1024.14 1023.88 1023.69 1023.49 1023.53 1023.82 1023.83 1023.56 1023.12 1022.53 1021.94 1021.35 1020.43 1019.47
1008.89 1009.00 1009.39 1009.57 1009.37 1009.47 1009.03 1009.24 1009.38 1009.76 1009.63 1009.36 1009.11 1008.44 1009.33 1009.68 1010.82 1011.28 1011.43 1011.92 1012.87 1014.98 1017.59 1019.89 1022.03 1022.89 1023.78 1024.29 1024.42 1024.52 1024.56 1024.74 1024.73 1024.52 1024.40 1024.38 1024.29 1023.92 1023.57 1022.94 1022.22 1021.85 1021.04 1020.19
1009.81 1009.65 1009.35 1009.77 1010.48 1010.11 1009.53 1009.26 1009.28 1009.34 1009.83 1009.77 1010.00 1008.80 1009.70 1009.92 1010.39 1010.42 1010.16 1011.07 1012.96 1015.46 1017.79 1019.93 1021.89 1022.98 1023.84 1024.10 1024.60 1024.79 1025.07 1025.39 1025.45 1025.29 1025.14 1024.93 1024.68 1024.27 1023.86 1023.28 1022.63 1022.09 1021.52 1020.76
1010.47 1010.24 1010.01 1009.75 1010.17 1009.82 1009.52 1009.26 1009.38 1009.80 1010.03 1009.89 1009.44 1009.35 1008.89 1009.10 1009.03 1009.11 1009.76 1010.86 1012.63 1015.22 1017.44 1019.40 1021.18 1022.31 1023.15 1023.98 1024.50 1024.87 1025.28 1025.64 1025.70 1025.70 1025.55 1025.35 1025.06 1024.67 1024.25 1023.72 1023.04 1022.49 1022.13 1021.26
1011.36 1011.12 1011.21 1011.08 1010.56 1010.71 1010.24 1009.53 1009.53 1009.85 1009.73 1009.94 1009.30 1009.12 1008.52 1008.68 1009.03 1009.31 1010.38 1011.56 1012.72 1014.85 1017.16 1019.09 1020.51 1021.63 1022.41 1023.08 1023.76 1024.36 1025.04 1025.69 1025.89 1025.88 1025.86 1025.68 1025.46 1025.05 1024.62 1023.97 1023.57 1023.19 1022.81 1022.44
1012.04 1012.37 1012.57 1012.15 1011.27 1010.69 1010.32 1009.85 1009.61 1009.66 1009.59 1009.76 1009.64 1008.65 1008.77 1008.72 1009.10 1010.13 1011.16 1012.27 1013.16 1015.01 1017.06 1018.81 1020.28 1021.15 1021.64 1022.48 1023.29 1023.92 1024.70 1025.44 1025.73 1026.03 1026.15 1026.01 1025.78 1025.53 1025.08 1024.62 1024.15 1024.02 1023.55 1023.20
1012.48 1012.52 1013.43 1012.72 1011.69 1010.87 1010.31 1009.55 1009.49 1009.30 1009.06 1008.96 1008.49 1007.89 1008.04 1008.65 1009.38 1010.16 1011.25 1012.71 1013.98 1015.40 1017.18 1018.68 1019.95 1020.66 1021.47 1022.14 1022.93 1023.51 1024.44 1025.14 1025.13 1025.88 1026.15 1026.12 1026.09 1025.91 1025.57 1025.17 1024.77 1024.43 1024.13 1023.90
1012.42 1012.60 1012.92 1012.01 1011.69 1010.55 1008.99 1009.07 1008.79 1008.71 1008.50 1008.24 1007.93 1007.86 1008.13 1008.95 1010.38 1011.83 1012.74 1013.45 1014.40 1015.90 1017.37 1018.74 1019.80 1020.80 1021.73 1022.11 1022.72 1023.46 1023.84 1024.59 1025.14 1025.42 1025.76 1026.16 1026.24 1026.18 1025.97 1025.56 1025.21 1024.93 1024.63 1024.46
1012.62 1012.14 1012.09 1011.74 1010.70 1009.56 1008.48 1008.16 1008.51 1008.70 1008.29 1008.02 1007.82 1007.89 1008.44 1010.38 1011.40 1012.06 1013.56 1014.35 1015.15 1016.50 1017.90 1019.22 1020.24 1021.32 1021.81 1022.41 1023.12 1023.65 1024.11 1024.60 1025.11 1025.48 1025.61 1025.63 1026.10 1026.24 1026.22 1025.93 1025.59 1025.35 1025.05 1024.96
1011.74 1012.13 1012.09 1010.98 1010.01 1008.65 1007.44 1007.89 1008.02 1008.78 1007.92 1007.39 1007.99 1008.39 1009.24 1011.26 1011.98 1013.08 1014.55 1015.48 1016.64 1018.11 1019.21 1020.43 1021.34 1021.77 1022.82 1023.34 1023.71 1024.38 1024.89 1025.53 1026.02 1026.14 1025.96 1026.05 1026.07 1026.22 1026.28 1026.18 1025.98 1025.72 1025.37 1025.20
1011.14 1011.50 1011.00 1010.28 1009.17 1007.75 1007.19 1007.73 1008.70 1008.69 1007.91 1008.03 1008.61 1009.37 1010.72 1012.13 1013.53 1014.86 1015.65 1016.56 1018.33 1019.49 1020.67 1021.70 1022.28 1023.01 1024.01 1024.55 1024.88 1025.42 1026.01 1026.44 1026.87 1026.91 1026.86 1026.77 1026.60 1026.55 1026.43 1026.36 1026.05 1025.75 1025.52 1025.33
1009.42 1009.96 1009.61 1009.26 1008.31 1006.97 1006.88 1007.81 1008.25 1007.58 1007.95 1008.41 1009.16 1010.15 1011.95 1013.52 1015.09 1015.86 1016.72 1017.76 1019.02 1020.20 1021.43 1022.39 1023.01 1023.84 1024.59 1025.14 1025.43 1025.86 1026.48 1026.99 1027.25 1027.37 1027.40 1027.30 1027.13 1026.90 1026.72 1026.59 1026.48 1026.12 1025.67 1025.51
1008.02 1008.13 1007.82 1007.86 1007.11 1006.83 1006.57 1006.95 1007.58 1007.77 1008.00 1008.65 1009.39 1010.50 1012.37 1013.86 1015.25 1016.28 1017.11 1018.05 1019.12 1020.36 1021.32 1022.47 1023.22 1023.96 1024.77 1025.24 1025.53 1026.03 1026.68 1027.02 1027.35 1027.53 1027.63 1027.51 1027.35 1027.22 1027.02 1026.78 1026.62 1026.31 1026.28 1026.04
1007.13 1007.39 1007.19 1007.57 1006.85 1006.65 1007.11 1007.16 1007.25 1007.49 1008.27 1008.89 1009.68 1010.50 1012.30 1013.57 1014.96 1016.05 1016.83 1017.52 1018.58 1019.70 1020.79 1021.96 1023.03 1023.66 1024.42 1025.04 1025.42 1025.87 1026.62 1026.92 1027.31 1027.44 1027.55 1027.53 1027.40 1027.38 1027.24 1027.06 1027.22 1027.19 1027.09 1026.87
1007.04 1007.27 1007.20 1006.87 1007.10 1006.86 1006.80 1007.12 1007.47 1007.68 1008.36 1009.35 1009.97 1010.82 1011.72 1013.10 1014.33 1015.42 1016.22 1016.78 1017.73 1018.79 1019.98 1021.05 1021.92 1022.80 1023.66 1024.49 1025.25 1025.92 1026.40 1026.71 1026.91 1027.20 1027.35 1027.36 1027.38 1027.54 1027.85 1028.18 1028.30 1028.34 1028.84 1028.63
1006.69 1006.67 1006.72 1006.55 1006.78 1007.10 1007.27 1007.57 1008.07 1008.36 1008.69 1009.10 1010.01 1010.91 1011.43 1012.36 1013.58 1014.66 1015.48 1016.08 1017.00 1018.05 1019.18 1020.15 1020.92 1021.91 1022.93 1023.70 1024.63 1025.45 1025.93 1026.19 1026.45 1026.65 1026.90 1026.88 1027.06 1027.23 1027.42 1027.95 1028.98 1029.63 1029.62 1029.51
Thickness
5661 5655 5660 5677 5677 5668 5666 5668 5672 5685 5681 5657 5663 5669 5677 5661 5657 5648 5639 5630 5622 5612 5601 5591 5583 5578 5574 5569 5564 5559 5555 5551 5549 5551 5548 5549 5550 5550 5551 5551 5552 5553 5555 5556
5653 5649 5672 5670 5660 5654 5655 5655 5660 5671 5672 5652 5661 5662 5675 5664 5652 5647 5636 5626 5616 5604 5595 5581 5575 5568 5559 5553 5546 5541 5537 5533 5531 5528 5525 5526 5527 5528 5534 5534 5534 5532 5532 5533
5646 5663 5656 5650 5649 5644 5650 5648 5654 5654 5659 5660 5656 5653 5670 5669 5647 5638 5628 5621 5608 5596 5584 5571 5561 5554 5546 5538 5530 5524 5519 5516 5512 5506 5506 5505 5503 5508 5510 5511 5508 5509 5507 5506
5646 5660 5648 5642 5639 5647 5639 5658 5645 5639 5636 5638 5649 5634 5660 5653 5627 5618 5612 5605 5598 5583 5567 5558 5548 5540 5531 5522 5516 5511 5505 5501 5494 5487 5485 5482 5482 5481 5478 5477 5478 5476 5476 5479
5639 5630 5628 5631 5642 5642 5633 5633 5630 5631 5628 5631 5639 5633 5655 5643 5626 5614 5606 5597 5587 5572 5557 5546 5535 5527 5522 5513 5504 5496 5488 5482 5474 5467 5463 5460 5457 5454 5452 5450 5451 5450 5454 5455
5629 5633 5628 5632 5631 5630 5630 5622 5621 5621 5619 5608 5634 5634 5641 5641 5623 5610 5605 5591 5575 5557 5544 5533 5523 5515 5509 5500 5490 5481 5473 5467 5459 5451 5444 5439 5436 5431 5430 5430 5432 5434 5437 5441
5618 5617 5617 5619 5609 5615 5614 5613 5603 5603 5603 5608 5634 5617 5629 5631 5615 5602 5589 5579 5562 5546 5534 5524 5516 5507 5495 5484 5475 5467 5459 5452 5443 5434 5428 5423 5418 5415 5413 5414 5416 5419 5422 5427
5607 5596 5614 5613 5611 5607 5603 5608 5601 5596 5607 5623 5614 5608 5625 5612 5601 5585 5577 5567 5551 5535 5523 5515 5503 5492 5483 5472 5462 5452 5445 5439 5428 5419 5413 5407 5401 5398 5398 5399 5402 5407 5410 5413
5606 5604 5613 5608 5605 5607 5596 5587 5605 5587 5596 5585 5604 5618 5626 5591 5579 5572 5559 5549 5540 5530 5520 5508 5493 5479 5470 5460 5448 5437 5430 5423 5414 5407 5401 5393 5388 5386 5386 5387 5389 5393 5397 5400
5599 5578 5592 5585 5588 5590 5587 5597 5572 5572 5560 5565 5596 5603 5602 5571 5574 5565 5551 5544 5535 5527 5510 5495 5479 5464 5455 5445 5435 5424 5415 5409 5404 5400 5391 5385 5380 5377 5375 5375 5378 5382 5386 5389
5588 5583 5566 5566 5571 5576 5565 5569 5572 5574 5574 5561 5565 5576 5579 5559 5565 5554 5549 5544 5534 5522 5497 5475 5458 5449 5435 5425 5419 5410 5402 5398 5394 5390 5384 5376 5371 5368 5367 5367 5369 5371 5376 5381
5574 5569 5550 5561 5573 5574 5576 5569 5567 5547 5553 5563 5560 5565 5582 5566 5551 5543 5542 5538 5531 5514 5489 5463 5430 5420 5413 5406 5401 5399 5395 5387 5382 5379 5375 5371 5368 5365 5362 5361 5363 5364 5368 5373
5554 5550 5547 5546 5548 5554 5556 5564 5564 5561 5552 5544 5535 5553 5564 5554 5545 5547 5545 5536 5521 5501 5476 5454 5429 5414 5404 5404 5396 5392 5386 5378 5374 5372 5370 5366 5365 5363 5360 5359 5360 5360 5363 5367
5537 5545 5543 5544 5538 5545 5543 5551 5555 5545 5531 5539 5542 5535 5557 5552 5551 5550 5543 5533 5516 5494 5470 5451 5431 5419 5409 5398 5391 5385 5380 5374 5370 5367 5367 5362 5360 5359 5359 5358 5360 5360 5359 5364
5525 5526 5520 5531 5537 5532 5534 5540 5542 5531 5540 5527 5535 5535 5549 5547 5539 5540 5529 5518 5507 5488 5463 5443 5430 5419 5410 5402 5394 5388 5379 5371 5368 5365 5363 5361 5360 5361 5362 5363 5361 5360 5357 5358
5511 5507 5491 5496 5522 5525 5521 5531 5532 5531 5532 5523 5522 5529 5540 5541 5536 5524 5513 5503 5496 5479 5454 5437 5423 5415 5411 5401 5392 5386 5378 5370 5366 5362 5357 5359 5360 5360 5361 5361 5361 5358 5358 5358
5496 5495 5480 5486 5513 5514 5507 5519 5521 5525 5531 5527 5521 5536 5541 5530 5525 5519 5507 5492 5479 5466 5445 5431 5419 5413 5405 5397 5389 5383 5375 5368 5368 5359 5357 5358 5358 5359 5359 5359 5358 5357 5356 5356
5489 5486 5493 5497 5496 5489 5524 5528 5529 5522 5526 5529 5530 5532 5532 5524 5509 5492 5484 5478 5468 5452 5438 5425 5416 5405 5395 5392 5386 5380 5376 5369 5365 5363 5360 5357 5356 5355 5356 5357 5356 5355 5355 5354
5482 5489 5490 5487 5495 5509 5522 5525 5515 5509 5514 5523 5524 5527 5524 5501 5492 5490 5468 5462 5455 5442 5430 5415 5406 5395 5390 5383 5377 5374 5370 5367 5363 5360 5359 5360 5355 5353 5353 5353 5353 5353 5353 5352
5484 5481 5479 5490 5488 5495 5523 5517 5520 5508 5503 5524 5518 5515 5510 5491 5492 5482 5454 5447 5435 5414 5408 5398 5390 5387 5375 5370 5367 5362 5359 5353 5349 5350 5353 5353 5354 5352 5350 5350 5349 5349 5350 5350
5466 5467 5473 5483 5488 5506 5521 5510 5502 5487 5505 5509 5506 5501 5492 5483 5471 5445 5440 5432 5409 5397 5388 5381 5376 5368 5359 5355 5353 5347 5343 5340 5338 5340 5342 5343 5345 5345 5345 5346 5347 5347 5348 5347
5476 5469 5476 5482 5486 5494 5514 5498 5491 5504 5502 5500 5494 5488 5456 5439 5424 5421 5416 5406 5396 5386 5376 5369 5363 5356 5350 5346 5343 5339 5333 5331 5330 5331 5332 5334 5337 5338 5339 5340 5339 5341 5344 5343
5479 5484 5488 5490 5494 5504 5507 5502 5499 5498 5495 5490 5486 5479 5447 5426 5419 5412 5407 5401 5391 5378 5372 5363 5355 5349 5343 5340 5337 5332 5327 5326 5324 5324 5325 5327 5329 5330 5331 5333 5334 5336 5334 5335
5485 5487 5485 5483 5493 5497 5494 5496 5495 5493 5485 5481 5476 5470 5451 5431 5415 5405 5403 5401 5391 5380 5370 5360 5350 5344 5339 5335 5332 5328 5322 5320 5318 5318 5319 5321 5322 5323 5324 5324 5323 5322 5323 5324
5477 5477 5477 5481 5477 5489 5491 5487 5484 5484 5478 5468 5464 5457 5448 5430 5415 5403 5399 5399 5392 5381 5369 5360 5353 5346 5339 5332 5326 5320 5316 5314 5314 5313 5313 5314 5315 5314 5311 5308 5308 5307 5301 5302
5473 5472 5472 5474 5479 5476 5478 5477 5472 5470 5467 5464 5453 5442 5440 5429 5415 5407 5399 5398 5389 5378 5367 5359 5353 5345 5337 5332 5324 5317 5313 5311 5310 5309 5309 5311 5309 5308 5307 5302 5294 5288 5287 5287